Location: Okie-Tex Star Party
(36.8978°N, 102.9520°W)
Time: 04:45:23
(UTC-05:00)

Amateur Radio Satellites - All Passes

Search period start: 01 November 2014 04:15
Search period end: 02 November 2014 03:15
Location: Okie-Tex Star Party, 36.8978°N, 102.9520°W

Satellite Date Start Highest point End Downlink Frequencies (MHz)
Time Altitude Azimuth
Sapphire 01 Nov 04:16:12 04:20:59 32° 305° (NW) 04:25:49 437.095 MHz 1200 baud AX-25 AFSK
TMSAT-1 01 Nov 04:17:14 04:22:08 37° 98° (E) 04:26:58 436.925 FM
AO-Echo 01 Nov 04:31:20 04:36:24 45° 288° (WNW) 04:41:22 ?
Uribyol 2 01 Nov 04:35:36 04:40:39 53° 288° (WNW) 04:45:39 436.500 FM
PCSat 01 Nov 04:38:55 04:42:53 20° 310° (NW) 04:46:52 145.825 MHz
ITAMSAT 1 01 Nov 04:43:47 04:48:47 47° 288° (WNW) 04:53:44 435.822 SSB
AO-7 01 Nov 04:55:12 05:01:24 23° 94° (E) 05:07:33 29.400 - 29.500 MHz
Oscar 19 01 Nov 04:55:14 04:58:05 15° 297° (WNW) 05:00:55 437.125 CW, 437.150 USB
JAS-1B 01 Nov 04:59:15 05:05:16 29° 294° (WNW) 05:12:10 435.800 - 435.900 CW/SSB
PANSAT 01 Nov 05:21:04 05:23:55 20° 171° (S) 05:26:46 not established
AO-27 01 Nov 05:32:59 05:36:15 17° 296° (WNW) 05:39:30 436.795 MHz FM
RS-15 01 Nov 05:49:08 05:59:06 35° 43° (NE) 06:09:22 29.354 - 29.394 USB, Beacon 29.352 USB
Gurwin Techsat 1B 01 Nov 05:51:56 05:55:52 22° 294° (WNW) 05:59:47 435.225 FM
Saudisat 1A 01 Nov 05:54:10 05:57:54 28° 113° (ESE) 06:01:40 436.775 MHz
TMSAT-1 01 Nov 05:57:33 06:01:49 25° 293° (WNW) 06:06:04 436.925 FM
OPAL 01 Nov 05:57:54 06:02:52 54° 71° (ENE) 06:07:48 ?
Uosat F 01 Nov 06:23:09 06:28:13 84° 104° (ESE) 06:33:15 435.120 FM
JAS-2 01 Nov 06:33:51 06:41:05 38° 95° (E) 06:47:56 435.800 - 435.900 CW/SSB, 435.910 FM
AO-7 01 Nov 06:46:27 06:54:44 71° 291° (WNW) 07:03:00 29.400 - 29.500 MHz
PANSAT 01 Nov 07:00:30 07:03:33 22° 184° (S) 07:06:35 not established
Hamsat 01 Nov 07:04:36 07:08:22 31° 97° (E) 07:12:09 145.90 MHz
Saudisat 1A 01 Nov 07:33:40 07:37:24 27° 309° (NW) 07:41:09 436.775 MHz
OPAL 01 Nov 07:38:58 07:42:00 16° 265° (W) 07:45:02 ?
STRAND 1 01 Nov 07:55:22 08:00:30 85° 76° (ENE) 08:05:41 ?
RS-15 01 Nov 08:01:11 08:12:19 71° 245° (WSW) 08:23:58 29.354 - 29.394 USB, Beacon 29.352 USB
Uosat F 01 Nov 08:05:06 08:06:15 11° 299° (WNW) 08:07:24 435.120 FM
MaSat-1 01 Nov 08:07:48 08:09:22 15° 59° (ENE) 08:10:52 437.345 MHz
JAS-2 01 Nov 08:18:43 08:26:00 43° 292° (WNW) 08:33:01 435.800 - 435.900 CW/SSB, 435.910 FM
Hamsat 01 Nov 08:41:04 08:44:05 19° 291° (WNW) 08:47:07 145.90 MHz
PANSAT 01 Nov 08:41:10 08:43:06 13° 197° (SSW) 08:45:02 not established
AO-7 01 Nov 08:42:05 08:46:02 14° 310° (NW) 08:50:00 29.400 - 29.500 MHz
SO-67 01 Nov 08:54:52 08:58:20 83° 102° (ESE) 09:01:45 435.3500 MHz FM
KITSAT 1 01 Nov 09:59:07 10:02:57 14° 100° (E) 10:06:47 435.175 FM
HO-68 01 Nov 10:09:25 10:15:55 36° 98° (E) 10:22:22 435.675 MHz FM
RS-15 01 Nov 10:18:27 10:22:41 13° 263° (W) 10:27:01 29.354 - 29.394 USB, Beacon 29.352 USB
ISS 01 Nov 10:22:52 10:26:06 53° 136° (SE) 10:29:21 145.800 FM
UKube-1 01 Nov 10:51:11 10:54:43 24° 96° (E) 10:58:14 145.840 MHz, 145.915 MHz
ZACube-1 01 Nov 11:03:30 11:05:10 12° 92° (E) 11:06:49 437.345 MHz
Sapphire 01 Nov 11:23:26 11:27:11 19° 49° (NE) 11:30:55 437.095 MHz 1200 baud AX-25 AFSK
Oscar 11 01 Nov 11:24:42 11:28:58 59° 101° (E) 11:33:13 145.825 FM, Beacon 2401.500 USB
SO-50 01 Nov 11:35:46 11:40:05 51° 116° (ESE) 11:44:32 436.795 FM
FUNcube-1 01 Nov 11:44:12 11:48:06 38° 98° (E) 11:51:57 145.950 - 145.970 MHz USB
PCSat 01 Nov 11:44:23 11:49:04 29° 54° (NE) 11:53:43 145.825 MHz
KITSAT 1 01 Nov 11:49:03 11:57:08 85° 116° (ESE) 12:05:15 435.175 FM
HO-68 01 Nov 11:57:00 12:03:34 40° 294° (WNW) 12:10:08 435.675 MHz FM
ISS 01 Nov 12:00:33 12:03:00 19° 332° (NNW) 12:05:27 145.800 FM
UOSAT-12 01 Nov 12:17:16 12:18:43 11° 106° (ESE) 12:20:11 437.025 FM, 437.400 FM
UKube-1 01 Nov 12:27:11 12:30:49 26° 291° (WNW) 12:34:26 145.840 MHz, 145.915 MHz
ZACube-1 01 Nov 12:37:48 12:41:48 45° 286° (WNW) 12:45:45 437.345 MHz
Oscar 11 01 Nov 13:03:21 13:04:36 11° 296° (WNW) 13:05:52 145.825 FM, Beacon 2401.500 USB
Sapphire 01 Nov 13:05:41 13:11:04 64° 247° (WSW) 13:16:24 437.095 MHz 1200 baud AX-25 AFSK
SO-50 01 Nov 13:17:49 13:20:56 18° 314° (NW) 13:24:07 436.795 FM
FUNcube-1 01 Nov 13:21:42 13:24:09 15° 293° (WNW) 13:26:34 145.950 - 145.970 MHz USB
PCSat 01 Nov 13:27:34 13:32:30 37° 250° (WSW) 13:37:24 145.825 MHz
Oscar 16 01 Nov 13:38:12 13:42:09 23° 67° (ENE) 13:46:06 437.025 USB, Beacon 2401.1428
KITSAT 1 01 Nov 13:47:21 13:53:29 23° 317° (NW) 13:59:40 435.175 FM
JAS-1B 01 Nov 13:53:20 13:58:16 31° 67° (ENE) 14:03:11 435.800 - 435.900 CW/SSB
UOSAT-12 01 Nov 13:53:37 13:58:13 68° 302° (WNW) 14:02:55 437.025 FM, 437.400 FM
AO-Echo 01 Nov 14:04:37 14:08:13 20° 65° (ENE) 14:11:54 ?
Uribyol 2 01 Nov 14:13:19 14:17:08 21° 65° (ENE) 14:20:58 436.500 FM
ITAMSAT 1 01 Nov 14:21:18 14:25:21 23° 66° (ENE) 14:29:25 435.822 SSB
Saudisat 1A 01 Nov 14:23:29 14:25:59 15° 45° (NE) 14:28:28 436.775 MHz
Oscar 19 01 Nov 14:28:46 14:33:52 70° 74° (ENE) 14:38:58 437.125 CW, 437.150 USB
AO-27 01 Nov 15:07:53 15:13:03 67° 74° (ENE) 15:18:15 436.795 MHz FM
Oscar 16 01 Nov 15:16:27 15:21:14 39° 262° (W) 15:26:02 437.025 USB, Beacon 2401.1428
Gurwin Techsat 1B 01 Nov 15:29:56 15:35:06 56° 73° (ENE) 15:40:18 435.225 FM
TMSAT-1 01 Nov 15:35:41 15:40:43 46° 72° (ENE) 15:45:46 436.925 FM
AO-Echo 01 Nov 15:41:53 15:46:36 43° 262° (W) 15:51:30 ?
JAS-1B 01 Nov 15:44:00 15:48:57 29° 263° (W) 15:53:51 435.800 - 435.900 CW/SSB
Uribyol 2 01 Nov 15:51:18 15:56:16 44° 261° (W) 16:01:15 436.500 FM
AO-7 01 Nov 15:52:07 15:58:42 27° 58° (ENE) 16:05:17 29.400 - 29.500 MHz
ITAMSAT 1 01 Nov 15:59:43 16:04:34 39° 262° (W) 16:09:27 435.822 SSB
Saudisat 1A 01 Nov 16:01:34 16:05:57 63° 243° (WSW) 16:10:18 436.775 MHz
Oscar 19 01 Nov 16:11:50 16:13:38 12° 269° (W) 16:15:27 437.125 CW, 437.150 USB
JAS-2 01 Nov 16:47:14 16:49:42 12° 54° (NE) 16:52:15 435.800 - 435.900 CW/SSB, 435.910 FM
AO-27 01 Nov 16:50:45 16:52:59 13° 269° (W) 16:55:14 436.795 MHz FM
ISS 01 Nov 16:53:36 16:56:32 28° 32° (NNE) 16:59:28 145.800 FM
Gurwin Techsat 1B 01 Nov 17:12:12 17:15:23 16° 268° (W) 17:18:35 435.225 FM
TMSAT-1 01 Nov 17:17:04 17:20:49 20° 267° (W) 17:24:35 436.925 FM
Uosat F 01 Nov 17:34:01 17:39:03 90° 78° (ENE) 17:44:08 435.120 FM
AO-7 01 Nov 17:42:40 17:50:51 65° 256° (WSW) 17:59:05 29.400 - 29.500 MHz
Hamsat 01 Nov 17:56:39 17:59:24 17° 68° (ENE) 18:02:08 145.90 MHz
OPAL 01 Nov 18:11:27 18:14:28 16° 95° (E) 18:17:28 ?
JAS-2 01 Nov 18:27:04 18:33:17 75° 74° (ENE) 18:40:23 435.800 - 435.900 CW/SSB, 435.910 FM
ISS 01 Nov 18:30:17 18:33:11 28° 228° (SW) 18:36:05 145.800 FM
SO-67 01 Nov 19:26:00 19:28:22 18° 70° (ENE) 19:30:44 435.3500 MHz FM
Hamsat 01 Nov 19:31:16 19:35:04 34° 263° (W) 19:38:52 145.90 MHz
KITSAT 1 01 Nov 19:45:23 19:52:15 29° 47° (NE) 19:59:03 435.175 FM
OPAL 01 Nov 19:48:49 19:53:35 50° 290° (WNW) 19:58:21 ?
STRAND 1 01 Nov 20:08:41 20:13:21 34° 98° (E) 20:17:59 ?
SO-50 01 Nov 20:09:35 20:13:45 28° 51° (NE) 20:17:57 436.795 FM
RS-15 01 Nov 20:13:31 20:21:07 22° 101° (ESE) 20:28:37 29.354 - 29.394 USB, Beacon 29.352 USB
JAS-2 01 Nov 20:15:30 20:19:12 16° 273° (W) 20:23:08 435.800 - 435.900 CW/SSB, 435.910 FM
HO-68 01 Nov 20:36:52 20:42:04 22° 60° (ENE) 20:47:18 435.675 MHz FM
SO-67 01 Nov 20:58:32 21:01:10 21° 265° (W) 21:03:49 435.3500 MHz FM
KITSAT 1 01 Nov 21:40:13 21:48:10 65° 247° (WSW) 21:56:06 435.175 FM
MaSat-1 01 Nov 21:41:11 21:42:41 12° 105° (ESE) 21:44:08 437.345 MHz
UKube-1 01 Nov 21:45:14 21:48:00 17° 66° (ENE) 21:50:46 145.840 MHz, 145.915 MHz
STRAND 1 01 Nov 21:48:11 21:52:20 25° 293° (WNW) 21:56:29 ?
SO-50 01 Nov 21:49:57 21:54:19 34° 247° (WSW) 21:58:42 436.795 FM
Oscar 11 01 Nov 22:17:36 22:21:30 34° 72° (ENE) 22:25:24 145.825 FM, Beacon 2401.500 USB
RS-15 01 Nov 22:21:00 22:32:03 84° 300° (WNW) 22:43:03 29.354 - 29.394 USB, Beacon 29.352 USB
HO-68 01 Nov 22:22:00 22:29:06 68° 257° (WSW) 22:36:17 435.675 MHz FM
UOSAT-12 01 Nov 22:25:28 22:30:05 54° 56° (ENE) 22:34:37 437.025 FM, 437.400 FM
FUNcube-1 01 Nov 22:38:25 22:42:07 26° 70° (ENE) 22:45:46 145.950 - 145.970 MHz USB
MaSat-1 01 Nov 23:14:05 23:17:46 40° 296° (WNW) 23:21:07 437.345 MHz
UKube-1 01 Nov 23:19:46 23:23:50 39° 261° (W) 23:27:57 145.840 MHz, 145.915 MHz
ZACube-1 01 Nov 23:31:13 23:35:46 80° 258° (WSW) 23:40:14 437.345 MHz
Oscar 11 01 Nov 23:54:51 23:57:45 18° 266° (W) 00:00:39 145.825 FM, Beacon 2401.500 USB
UOSAT-12 02 Nov 00:07:08 00:09:44 15° 252° (WSW) 00:12:19 437.025 FM, 437.400 FM
FUNcube-1 02 Nov 00:14:35 00:18:23 26° 264° (W) 00:22:08 145.950 - 145.970 MHz USB
RS-15 02 Nov 00:37:40 00:46:15 25° 326° (NW) 00:54:55 29.354 - 29.394 USB, Beacon 29.352 USB
JAS-1B 02 Nov 01:40:18 01:42:59 12° 91° (E) 01:45:47 435.800 - 435.900 CW/SSB
Sapphire 02 Nov 01:03:09 01:07:19 23° 106° (ESE) 01:11:30 437.095 MHz 1200 baud AX-25 AFSK
PCSat 02 Nov 01:23:37 01:28:36 40° 110° (ESE) 01:33:38 145.825 MHz
Oscar 19 02 Nov 01:43:08 01:47:34 29° 96° (E) 01:51:59 437.125 CW, 437.150 USB
RS-15 02 Nov 01:59:24 02:04:29 14° 2° (N) 02:09:37 29.354 - 29.394 USB, Beacon 29.352 USB
AO-27 02 Nov 02:23:48 02:28:18 29° 96° (E) 02:32:45 436.795 MHz FM
JAS-1B 02 Nov 02:26:37 02:34:03 76° 104° (ESE) 02:42:57 435.800 - 435.900 CW/SSB
Oscar 16 02 Nov 02:29:59 02:35:08 89° 103° (ESE) 02:40:16 437.025 USB, Beacon 2401.1428
Sapphire 02 Nov 02:45:18 02:50:25 43° 302° (WNW) 02:55:35 437.095 MHz 1200 baud AX-25 AFSK
Gurwin Techsat 1B 02 Nov 02:49:00 02:53:27 27° 96° (E) 02:57:53 435.225 FM
AO-Echo 02 Nov 02:51:03 02:56:23 75° 102° (ESE) 03:01:36 ?
TMSAT-1 02 Nov 02:54:32 02:58:35 22° 94° (E) 03:02:37 436.925 FM
